Terminal Aerodrome Forecast
Issued by NWS Columbia, SC

Home | Current Version | Previous Version | Text Only | Print | Product List | Glossary On
Versions: 1 2 3 4 5 6 7 8 9 10 11 12 13 14 15 16 17 18 19 20 21 22 23 24 25 26 27 28 29 30 31 32 33 34 35 36 37 38 39 40 41 42 43 44 45 46 47 48
000
FTAK31 PAJN 302338
TAFAGS
TAF
PAGS 302338Z 0100/0124 13015G25KT P6SM SCT025 BKN040 OVC060
      WS020/12040KT
      TEMPO 0100/0104 6SM -RA BR BKN025 OVC040
     FM010400 14010G20KT 6SM -SHRA BKN025 OVC040
     FM011800 12010KT 4SM -RA BR FEW006 BKN025 OVC040
      AMD LTD TO CLD VIS AND WIND=

USA.gov is the U.S. government's official web portal to all federal, state and local government web resources and services.